Location: Arpaise
(41.0333°N, 14.7333°E)
Time: 14:15:55
(UTC+00:00)

Cosmos 846 Rocket - Pass Details

Date: 22 January 2021
Orbit: 948 x 991 km, 82.9° (Epoch: 04 March)

Event Time Altitude Azimuth Distance (km) Brightness Sun altitude
Rises 04:03:49 0° 7° (N) 3,633 8.5 -25.5°
Reaches altitude 10° 04:07:10 10° 25° (NNE) 2,680 8.0 -24.9°
Maximum altitude 04:11:21 19° 68° (ENE) 2,108 7.9 -24.1°
Drops below altitude 10° 04:15:29 10° 112° (ESE) 2,668 8.8 -23.3°
Sets 04:18:48 0° 130° (SE) 3,611 9.4 -22.7°
